N636CX KUDD-KEMT

Flight info

Callsign N636CX
Flight time N/A
Altitude 10000
Route PSP V388 RNDAL V363 POM
Aircraft BE58/L-VRDW/C

Departure

Time 2026-05-05 01:17
Airport Bermuda Dunes Airport (KUDD)

Arrival

Time N/A
Airport San Gabriel Valley Airport (KEMT)
Time Latitude Longitude Altitude Speed Heading
2026-05-05 01:17 33.74216 -116.24083 6707 ft 148 kts 306°
2026-05-05 01:17 33.74867 -116.25043 6921 ft 151 kts 305°
2026-05-05 01:17 33.75394 -116.25825 7106 ft 153 kts 306°
2026-05-05 01:17 33.76071 -116.26823 7354 ft 153 kts 305°
2026-05-05 01:18 33.76741 -116.27809 7597 ft 153 kts 306°
2026-05-05 01:18 33.77415 -116.28813 7831 ft 154 kts 306°
2026-05-05 01:18 33.78090 -116.29813 8063 ft 154 kts 307°
2026-05-05 01:18 33.78775 -116.30821 8309 ft 153 kts 306°
2026-05-05 01:19 33.79447 -116.31816 8546 ft 153 kts 306°
2026-05-05 01:19 33.80123 -116.32811 8776 ft 153 kts 306°
2026-05-05 01:19 33.80800 -116.33813 9009 ft 153 kts 306°
2026-05-05 01:19 33.81473 -116.34806 9223 ft 153 kts 305°
2026-05-05 01:20 33.82149 -116.35803 9449 ft 153 kts 306°
2026-05-05 01:20 33.82815 -116.36788 9661 ft 153 kts 306°
2026-05-05 01:20 33.83490 -116.37785 9867 ft 154 kts 306°
2026-05-05 01:20 33.84171 -116.38796 10039 ft 155 kts 306°
2026-05-05 01:21 33.84885 -116.39849 10046 ft 167 kts 305°
2026-05-05 01:21 33.85635 -116.40962 10050 ft 175 kts 306°
2026-05-05 01:21 33.86310 -116.42195 10037 ft 179 kts 294°
2026-05-05 01:21 33.86754 -116.43598 10040 ft 180 kts 285°
2026-05-05 01:22 33.87149 -116.45036 10043 ft 182 kts 286°
2026-05-05 01:22 33.87549 -116.46484 10048 ft 182 kts 287°
2026-05-05 01:22 33.87991 -116.47925 10037 ft 184 kts 289°
2026-05-05 01:22 33.88424 -116.49362 10036 ft 184 kts 288°
2026-05-05 01:23 33.88849 -116.50823 10043 ft 185 kts 287°
2026-05-05 01:23 33.89261 -116.52285 10037 ft 185 kts 287°
2026-05-05 01:23 33.89667 -116.53761 10042 ft 185 kts 286°
2026-05-05 01:23 33.90065 -116.55236 10058 ft 185 kts 286°
2026-05-05 01:24 33.90459 -116.56720 10076 ft 186 kts 285°
2026-05-05 01:24 33.90846 -116.58192 10070 ft 186 kts 285°
2026-05-05 01:24 33.91231 -116.59673 10070 ft 185 kts 285°
2026-05-05 01:24 33.91613 -116.61148 10094 ft 185 kts 285°
2026-05-05 01:25 33.91994 -116.62640 10088 ft 186 kts 285°
2026-05-05 01:25 33.92372 -116.64129 10086 ft 186 kts 284°
2026-05-05 01:25 33.92750 -116.65620 10074 ft 186 kts 284°
2026-05-05 01:25 33.93118 -116.67115 10074 ft 186 kts 284°
2026-05-05 01:26 33.93491 -116.68617 10069 ft 185 kts 284°
2026-05-05 01:26 33.93858 -116.70091 10076 ft 186 kts 284°
2026-05-05 01:26 33.94233 -116.71590 10068 ft 186 kts 284°
2026-05-05 01:26 33.94571 -116.73083 10079 ft 185 kts 283°
2026-05-05 01:27 33.94778 -116.74601 10086 ft 183 kts 270°
2026-05-05 01:27 33.94776 -116.76151 10077 ft 184 kts 268°
2026-05-05 01:27 33.94755 -116.77674 10067 ft 184 kts 268°
2026-05-05 01:27 33.94723 -116.79240 10066 ft 185 kts 268°
2026-05-05 01:28 33.94686 -116.80772 10062 ft 185 kts 266°
2026-05-05 01:28 33.94643 -116.82325 10072 ft 183 kts 267°
2026-05-05 01:28 33.94598 -116.83841 10077 ft 183 kts 266°
2026-05-05 01:28 33.94547 -116.85377 10070 ft 182 kts 266°
2026-05-05 01:29 33.94495 -116.86897 10064 ft 183 kts 266°
2026-05-05 01:29 33.94443 -116.88420 10076 ft 181 kts 266°
2026-05-05 01:29 33.94388 -116.89944 10069 ft 181 kts 267°
2026-05-05 01:29 33.94333 -116.91454 10071 ft 179 kts 266°
2026-05-05 01:30 33.94278 -116.92947 10107 ft 178 kts 266°
2026-05-05 01:30 33.94221 -116.94444 10103 ft 181 kts 266°
2026-05-05 01:30 33.94164 -116.95961 10092 ft 181 kts 266°
2026-05-05 01:30 33.94106 -116.97473 10086 ft 181 kts 266°
2026-05-05 01:31 33.94048 -116.98984 10093 ft 180 kts 266°
2026-05-05 01:31 33.93992 -117.00474 10098 ft 181 kts 266°
2026-05-05 01:31 33.93934 -117.02007 10101 ft 181 kts 266°
2026-05-05 01:31 33.93877 -117.03497 10102 ft 180 kts 266°
2026-05-05 01:32 33.93815 -117.05019 10101 ft 180 kts 266°
2026-05-05 01:32 33.93756 -117.06526 10105 ft 180 kts 265°
2026-05-05 01:32 33.93696 -117.08023 10110 ft 180 kts 266°
2026-05-05 01:32 33.93635 -117.09543 10106 ft 180 kts 265°
2026-05-05 01:33 33.93576 -117.11045 10106 ft 179 kts 266°
2026-05-05 01:33 33.93514 -117.12547 10106 ft 179 kts 266°
2026-05-05 01:33 33.93454 -117.14054 10105 ft 179 kts 266°
2026-05-05 01:33 33.93393 -117.15562 10098 ft 180 kts 266°
2026-05-05 01:34 33.93331 -117.17071 10102 ft 179 kts 266°
2026-05-05 01:34 33.93270 -117.18579 10099 ft 179 kts 266°
2026-05-05 01:34 33.93208 -117.20084 10102 ft 180 kts 266°
2026-05-05 01:34 33.93147 -117.21588 10098 ft 180 kts 266°
2026-05-05 01:35 33.93085 -117.23080 10103 ft 180 kts 265°
2026-05-05 01:35 33.93023 -117.24592 10098 ft 180 kts 266°
2026-05-05 01:35 33.92960 -117.26096 10102 ft 180 kts 265°
2026-05-05 01:35 33.92898 -117.27595 10096 ft 180 kts 266°
2026-05-05 01:36 33.92835 -117.29102 10102 ft 180 kts 266°
2026-05-05 01:36 33.92773 -117.30599 10098 ft 180 kts 266°
2026-05-05 01:36 33.92709 -117.32108 10098 ft 180 kts 265°
2026-05-05 01:36 33.92648 -117.33611 10094 ft 180 kts 265°
2026-05-05 01:37 33.92584 -117.35123 10102 ft 180 kts 266°
2026-05-05 01:37 33.92522 -117.36634 10101 ft 179 kts 265°
2026-05-05 01:37 33.92458 -117.38132 10099 ft 180 kts 266°
2026-05-05 01:37 33.92394 -117.39636 10095 ft 179 kts 266°
2026-05-05 01:38 33.92331 -117.41132 10098 ft 179 kts 266°
2026-05-05 01:38 33.92266 -117.42646 10099 ft 179 kts 266°
2026-05-05 01:38 33.92203 -117.44141 10096 ft 179 kts 266°
2026-05-05 01:38 33.92137 -117.45635 10097 ft 179 kts 266°
2026-05-05 01:39 33.92070 -117.47137 10096 ft 179 kts 266°
2026-05-05 01:39 33.92001 -117.48634 10092 ft 179 kts 266°
2026-05-05 01:39 33.91931 -117.50130 10091 ft 179 kts 265°
2026-05-05 01:39 33.91859 -117.51630 10097 ft 179 kts 266°
2026-05-05 01:40 33.91895 -117.53135 10095 ft 180 kts 278°
2026-05-05 01:40 33.92178 -117.54637 9957 ft 187 kts 281°
2026-05-05 01:40 33.92499 -117.56177 9791 ft 192 kts 283°
2026-05-05 01:40 33.92857 -117.57727 9636 ft 195 kts 283°
2026-05-05 01:41 33.93228 -117.59320 9470 ft 197 kts 283°
2026-05-05 01:41 33.93595 -117.60925 9278 ft 199 kts 283°
2026-05-05 01:41 33.93956 -117.62530 9089 ft 200 kts 283°
2026-05-05 01:41 33.94317 -117.64139 8895 ft 202 kts 283°
2026-05-05 01:42 33.94685 -117.65801 8570 ft 207 kts 283°
2026-05-05 01:42 33.95047 -117.67482 8266 ft 209 kts 282°
2026-05-05 01:42 33.95417 -117.69187 7962 ft 210 kts 283°
2026-05-05 01:42 33.95791 -117.70879 7666 ft 211 kts 283°
2026-05-05 01:43 33.96170 -117.72581 7369 ft 211 kts 283°
2026-05-05 01:43 33.96553 -117.74296 7072 ft 212 kts 283°
2026-05-05 01:43 33.96941 -117.76024 6776 ft 213 kts 284°
2026-05-05 01:43 33.97329 -117.77742 6486 ft 213 kts 284°
2026-05-05 01:44 33.97851 -117.79424 6165 ft 217 kts 304°
2026-05-05 01:44 33.99126 -117.80332 6068 ft 217 kts 347°
2026-05-05 01:44 34.00567 -117.79932 6076 ft 218 kts 31°
2026-05-05 01:44 34.01815 -117.78957 6074 ft 210 kts 12°
2026-05-05 01:45 34.03241 -117.78783 6094 ft 203 kts 358°
2026-05-05 01:45 34.04656 -117.78762 6099 ft 202 kts 357°
2026-05-05 01:45 34.06078 -117.78741 6104 ft 202 kts 358°
2026-05-05 01:45 34.07486 -117.78764 6065 ft 200 kts 346°
2026-05-05 01:46 34.08599 -117.79661 5955 ft 194 kts 301°
2026-05-05 01:46 34.08862 -117.81252 5704 ft 200 kts 263°
2026-05-05 01:46 34.08519 -117.82869 5491 ft 202 kts 253°
2026-05-05 01:46 34.08241 -117.84489 5226 ft 194 kts 266°
2026-05-05 01:47 34.08162 -117.86117 4881 ft 194 kts 268°
2026-05-05 01:47 34.08209 -117.87762 4529 ft 195 kts 272°
2026-05-05 01:47 34.08281 -117.89382 4185 ft 195 kts 272°
2026-05-05 01:47 34.08355 -117.90987 3829 ft 182 kts 272°
2026-05-05 01:48 34.08424 -117.92432 3459 ft 167 kts 272°
2026-05-05 01:48 34.08481 -117.93787 3073 ft 158 kts 272°
2026-05-05 01:48 34.08536 -117.95072 2682 ft 153 kts 272°
2026-05-05 01:48 34.08592 -117.96343 2285 ft 149 kts 271°
2026-05-05 01:49 34.08644 -117.97573 1913 ft 145 kts 271°
2026-05-05 01:49 34.08696 -117.98770 1579 ft 141 kts 271°
2026-05-05 01:49 34.08745 -117.99932 1285 ft 135 kts 270°
2026-05-05 01:49 34.08779 -118.01035 1107 ft 129 kts 270°
2026-05-05 01:50 34.08774 -118.02116 1018 ft 129 kts 265°
2026-05-05 01:50 34.08755 -118.03206 907 ft 133 kts 276°
2026-05-05 01:50 34.09315 -118.04077 677 ft 132 kts 334°
2026-05-05 01:50 34.10095 -118.04236 700 ft 99 kts 353°
2026-05-05 01:51 34.10705 -118.03969 688 ft 97 kts 57°
2026-05-05 01:51 34.10562 -118.03269 770 ft 93 kts 166°
2026-05-05 01:51 34.09878 -118.03228 616 ft 105 kts 164°
2026-05-05 01:51 34.09264 -118.03055 390 ft 80 kts 207°
2026-05-05 01:52 34.08811 -118.03364 300 ft 55 kts 199°